{"data":{"norad_id":48399,"epoch":"2026-05-24T22:28:52.963968Z","epoch_age_seconds":80668,"freshness":"FRESH","line1":"1 48399U 21038AY  26144.93672412  .00002165  00000+0  81491-4 0  9998","line2":"2 48399  53.1608 337.9469 0001236  78.9600 281.1540 15.31707143280330","mean_motion":15.31707143,"eccentricity":0.0001236,"inclination_deg":53.1608,"raan_deg":337.9469,"arg_perigee_deg":78.96,"mean_anomaly_deg":281.154,"bstar":8.1491e-5,"rev_number":28033,"period_min":94.012749537723,"perigee_km":469.87218383227,"apogee_km":471.5652209619,"semimajor_km":6848.8557023971,"source":"CELESTRAK","updated_at":"2026-05-25T13:38:16.711330Z"}}